| time (UTC) | temp C | wind direction | speed KPH | gust KPH | rain 1hr cm | rain 24hr cm | rain mn cm | humidity % | barometer mb |
| 20260507085504 | 9 | 297 | 9.7 | 16.1 | 0.03 | 0.97 | 0.05 | 87 | 1007.1 |
| 20260507085003 | 9 | 296 | 9.7 | 17.7 | 0.03 | 0.97 | 0.05 | 86 | 1007.1 |
| 20260507084524 | 9 | 291 | 8.0 | 17.7 | 0.03 | 0.97 | 0.05 | 87 | 1007.1 |
| 20260507084003 | 9 | 295 | 8.0 | 17.7 | 0.03 | 0.97 | 0.05 | 86 | 1007.4 |
| 20260507083524 | 9 | 296 | 9.7 | 17.7 | 0.03 | 0.97 | 0.05 | 86 | 1006.7 |
| 20260507083004 | 9 | 296 | 8.0 | 14.5 | 0.03 | 0.97 | 0.05 | 85 | 1007.1 |
| 20260507082503 | 10 | 296 | 8.0 | 14.5 | 0.03 | 0.97 | 0.05 | 86 | 1006.7 |
| 20260507082003 | 10 | 299 | 6.4 | 14.5 | 0.03 | 0.97 | 0.05 | 86 | 1006.7 |
| 20260507081503 | 9 | 296 | 6.4 | 14.5 | 0.03 | 0.97 | 0.05 | 87 | 1006.7 |
| 20260507081024 | 9 | 286 | 8.0 | 19.3 | 0.03 | 0.97 | 0.05 | 87 | 1006.7 |
| 20260507080503 | 10 | 291 | 9.7 | 19.3 | 0.03 | 0.97 | 0.05 | 86 | 1007.4 |
| 20260507080004 | 10 | 294 | 9.7 | 19.3 | 0.00 | 0.94 | 0.03 | 85 | 1007.4 |
| 20260507075503 | 10 | 285 | 8.0 | 19.3 | 0.00 | 0.94 | 0.03 | 84 | 1007.1 |
| 20260507075003 | 10 | 287 | 9.7 | 16.1 | 0.00 | 0.94 | 0.03 | 83 | 1007.4 |
| 20260507074503 | 10 | 295 | 9.7 | 16.1 | 0.00 | 0.94 | 0.03 | 84 | 1007.4 |
| 20260507074003 | 10 | 297 | 9.7 | 19.3 | 0.00 | 0.94 | 0.03 | 84 | 1007.1 |
| 20260507073503 | 10 | 301 | 11.3 | 20.9 | 0.00 | 0.94 | 0.03 | 84 | 1006.7 |
| 20260507073004 | 10 | 299 | 11.3 | 22.5 | 0.00 | 0.94 | 0.03 | 85 | 1007.1 |
| 20260507072503 | 10 | 301 | 12.9 | 27.4 | 0.00 | 0.94 | 0.03 | 84 | 1006.7 |
| 20260507072003 | 10 | 300 | 14.5 | 27.4 | 0.00 | 0.94 | 0.03 | 84 | 1006.7 |
| 20260507071503 | 10 | 298 | 14.5 | 25.7 | 0.00 | 0.94 | 0.03 | 85 | 1006.7 |
| 20260507071003 | 10 | 297 | 12.9 | 25.7 | 0.00 | 0.94 | 0.03 | 83 | 1006.7 |
| 20260507070503 | 10 | 289 | 11.3 | 22.5 | 0.00 | 0.94 | 0.03 | 84 | 1006.7 |
| 20260507070008 | 10 | 287 | 9.7 | 20.9 | 0.00 | 0.94 | 0.03 | 84 | 1006.7 |
| 20260507065503 | 10 | 285 | 9.7 | 16.1 | 0.00 | 0.94 | 0.03 | 85 | 1006.7 |
| 20260507065003 | 10 | 290 | 8.0 | 16.1 | 0.00 | 0.94 | 0.03 | 86 | 1006.7 |
| 20260507064503 | 10 | 286 | 4.8 | 16.1 | 0.00 | 0.94 | 0.03 | 88 | 1006.7 |
| 20260507064003 | 10 | 277 | 4.8 | 11.3 | 0.00 | 0.94 | 0.03 | 89 | 1006.4 |
| 20260507063524 | 11 | 295 | 4.8 | 9.7 | 0.00 | 0.94 | 0.03 | 90 | 1006.4 |
| 20260507063003 | 11 | 308 | 6.4 | 9.7 | 0.00 | 0.94 | 0.03 | 90 | 1006.0 |
| 20260507062525 | 11 | 307 | 4.8 | 9.7 | 0.00 | 0.94 | 0.03 | 90 | 1006.0 |
| 20260507062003 | 11 | 290 | 3.2 | 9.7 | 0.00 | 0.94 | 0.03 | 90 | 1006.0 |
| 20260507061503 | 11 | 293 | 4.8 | 11.3 | 0.00 | 0.94 | 0.03 | 90 | 1006.4 |
| 20260507061003 | 11 | 292 | 6.4 | 12.9 | 0.00 | 0.94 | 0.03 | 89 | 1006.4 |
| 20260507060503 | 11 | 290 | 6.4 | 14.5 | 0.00 | 0.94 | 0.03 | 89 | 1006.4 |
| 20260507060025 | 11 | 293 | 8.0 | 14.5 | 0.00 | 0.94 | 0.03 | 88 | 1006.4 |
| 20260507055524 | 11 | 295 | 8.0 | 16.1 | 0.00 | 0.94 | 0.03 | 89 | 1006.4 |
| 20260507055003 | 11 | 293 | 8.0 | 19.3 | 0.00 | 0.94 | 0.03 | 89 | 1006.4 |
| 20260507054504 | 11 | 291 | 9.7 | 19.3 | 0.00 | 0.94 | 0.03 | 88 | 1006.7 |
| 20260507054003 | 11 | 292 | 6.4 | 14.5 | 0.00 | 0.94 | 0.03 | 89 | 1006.7 |
| 20260507053524 | 11 | 286 | 4.8 | 12.9 | 0.00 | 0.94 | 0.03 | 90 | 1006.4 |
| 20260507053004 | 11 | 289 | 4.8 | 11.3 | 0.00 | 0.94 | 0.03 | 90 | 1006.7 |
| 20260507052524 | 11 | 293 | 4.8 | 11.3 | 0.00 | 0.94 | 0.03 | 91 | 1007.1 |
| 20260507052003 | 11 | 284 | 3.2 | 9.7 | 0.00 | 0.94 | 0.03 | 91 | 1007.1 |
| 20260507051503 | 11 | 270 | 3.2 | 9.7 | 0.00 | 0.94 | 0.03 | 91 | 1006.7 |
| 20260507051003 | 11 | 284 | 3.2 | 8.0 | 0.03 | 0.94 | 0.03 | 91 | 1006.7 |
| 20260507050503 | 11 | 287 | 4.8 | 14.5 | 0.03 | 0.94 | 0.03 | 90 | 1006.7 |
| 20260507050003 | 11 | 284 | 8.0 | 16.1 | 0.03 | 0.94 | 0.03 | 90 | 1006.7 |
| 20260507045503 | 11 | 289 | 8.0 | 19.3 | 0.03 | 0.94 | 0.03 | 90 | 1006.7 |
| 20260507045003 | 11 | 292 | 8.0 | 19.3 | 0.03 | 0.94 | 0.03 | 91 | 1006.7 |
| 20260507044503 | 11 | 290 | 8.0 | 16.1 | 0.03 | 0.94 | 0.03 | 91 | 1006.4 |
| 20260507044003 | 11 | 293 | 8.0 | 16.1 | 0.03 | 0.94 | 0.03 | 90 | 1006.4 |
| 20260507043503 | 12 | 293 | 11.3 | 19.3 | 0.03 | 0.94 | 0.03 | 90 | 1006.4 |
| 20260507043003 | 12 | 289 | 9.7 | 19.3 | 0.03 | 0.94 | 0.03 | 90 | 1006.4 |
| 20260507042503 | 12 | 283 | 9.7 | 20.9 | 0.03 | 0.94 | 0.03 | 90 | 1006.7 |
| 20260507042003 | 12 | 283 | 8.0 | 20.9 | 0.03 | 0.94 | 0.03 | 91 | 1006.7 |
| 20260507041503 | 12 | 286 | 9.7 | 19.3 | 0.03 | 0.94 | 0.03 | 92 | 1006.7 |
| 20260507041003 | 12 | 299 | 11.3 | 24.1 | 0.00 | 0.91 | 0.00 | 91 | 1006.7 |
| 20260507040503 | 13 | 304 | 12.9 | 29.0 | 0.00 | 0.91 | 0.00 | 91 | 1006.4 |
| 20260507040004 | 13 | 301 | 14.5 | 29.0 | 0.00 | 0.91 | 0.00 | 91 | 1006.4 |
| 20260507035503 | 13 | 309 | 16.1 | 27.4 | 0.00 | 0.91 | 0.91 | 92 | 1006.0 |
| 20260507035003 | 13 | 307 | 14.5 | 27.4 | 0.00 | 0.91 | 0.91 | 93 | 1006.4 |
| 20260507034503 | 14 | 288 | 9.7 | 20.9 | 0.00 | 0.91 | 0.91 | 94 | 1006.0 |
| 20260507034003 | 14 | 273 | 6.4 | 16.1 | 0.00 | 0.91 | 0.91 | 95 | 1005.7 |
| 20260507033503 | 14 | 267 | 6.4 | 16.1 | 0.00 | 0.91 | 0.91 | 96 | 1005.7 |
| 20260507033004 | 15 | 264 | 6.4 | 17.7 | 0.00 | 0.91 | 0.91 | 97 | 1005.7 |
| 20260507032503 | 15 | 254 | 4.8 | 17.7 | 0.00 | 0.91 | 0.91 | 97 | 1005.4 |
| 20260507032004 | 15 | 222 | 4.8 | 14.5 | 0.00 | 0.91 | 0.91 | 97 | 1005.7 |
| 20260507031525 | 15 | 227 | 4.8 | 14.5 | 0.00 | 0.91 | 0.91 | 97 | 1005.4 |
| 20260507031003 | 15 | 224 | 4.8 | 11.3 | 0.00 | 0.91 | 0.91 | 97 | 1005.4 |
| 20260507030524 | 15 | 209 | 4.8 | 14.5 | 0.00 | 0.91 | 0.91 | 97 | 1005.4 |
| 20260507030003 | 15 | 202 | 4.8 | 14.5 | 0.00 | 0.91 | 0.91 | 97 | 1005.4 |
| 20260507025504 | 15 | 196 | 4.8 | 14.5 | 0.00 | 0.91 | 0.91 | 96 | 1005.0 |
| 20260507025025 | 15 | 189 | 4.8 | 19.3 | 0.00 | 0.91 | 0.91 | 96 | 1005.4 |
| 20260507024503 | 15 | 194 | 6.4 | 19.3 | 0.00 | 0.91 | 0.91 | 96 | 1005.4 |
| 20260507024003 | 15 | 203 | 4.8 | 19.3 | 0.00 | 0.91 | 0.91 | 96 | 1005.4 |
| 20260507023503 | 15 | 202 | 4.8 | 17.7 | 0.00 | 0.91 | 0.91 | 96 | 1005.0 |
| 20260507023003 | 15 | 201 | 6.4 | 17.7 | 0.00 | 0.91 | 0.91 | 96 | 1005.4 |
| 20260507022503 | 15 | 206 | 4.8 | 17.7 | 0.00 | 0.91 | 0.91 | 96 | 1005.0 |
| 20260507022003 | 15 | 200 | 4.8 | 17.7 | 0.00 | 0.91 | 0.91 | 96 | 1005.0 |
| 20260507021503 | 15 | 197 | 4.8 | 17.7 | 0.00 | 0.91 | 0.91 | 96 | 1005.0 |
| 20260507021003 | 15 | 207 | 4.8 | 19.3 | 0.00 | 0.91 | 0.91 | 96 | 1005.0 |
| 20260507020503 | 15 | 203 | 6.4 | 19.3 | 0.00 | 0.91 | 0.91 | 96 | 1005.4 |
| 20260507020004 | 15 | 195 | 4.8 | 17.7 | 0.00 | 0.91 | 0.91 | 96 | 1005.4 |
| 20260507015503 | 15 | 200 | 4.8 | 17.7 | 0.00 | 0.91 | 0.91 | 96 | 1005.4 |
| 20260507015003 | 15 | 205 | 4.8 | 14.5 | 0.00 | 0.91 | 0.91 | 96 | 1005.4 |
| 20260507014503 | 15 | 204 | 4.8 | 17.7 | 0.00 | 0.91 | 0.91 | 96 | 1005.4 |
| 20260507014003 | 15 | 193 | 4.8 | 17.7 | 0.00 | 0.91 | 0.91 | 96 | 1005.4 |
| 20260507013503 | 15 | 194 | 4.8 | 16.1 | 0.00 | 0.91 | 0.91 | 96 | 1005.7 |
| 20260507013003 | 15 | 195 | 6.4 | 19.3 | 0.00 | 0.91 | 0.91 | 96 | 1005.7 |
| 20260507012503 | 15 | 194 | 6.4 | 19.3 | 0.00 | 0.91 | 0.91 | 97 | 1005.7 |
| 20260507012003 | 15 | 199 | 6.4 | 19.3 | 0.00 | 0.91 | 0.91 | 97 | 1005.4 |
| 20260507011503 | 15 | 198 | 4.8 | 19.3 | 0.00 | 0.91 | 0.91 | 97 | 1005.7 |
| 20260507010503 | 15 | 198 | 6.4 | 19.3 | 0.00 | 0.91 | 0.91 | 97 | 1005.7 |
| 20260507010003 | 15 | 196 | 8.0 | 22.5 | 0.00 | 0.91 | 0.91 | 97 | 1005.7 |
| 20260507005503 | 15 | 201 | 6.4 | 22.5 | 0.00 | 0.91 | 0.91 | 97 | 1005.7 |
| 20260507005003 | 15 | 204 | 6.4 | 20.9 | 0.00 | 0.91 | 0.91 | 98 | 1005.4 |
| 20260507004504 | 15 | 206 | 6.4 | 17.7 | 0.00 | 0.91 | 0.91 | 98 | 1005.4 |
| 20260507004003 | 15 | 194 | 4.8 | 14.5 | 0.00 | 0.91 | 0.91 | 98 | 1005.4 |
| 20260507003525 | 15 | 187 | 6.4 | 24.1 | 0.00 | 0.91 | 0.91 | 98 | 1005.7 |
| 20260507003024 | 15 | 196 | 8.0 | 24.1 | 0.03 | 0.91 | 0.91 | 98 | 1005.4 |
| 20260507002503 | 15 | 196 | 4.8 | 24.1 | 0.08 | 0.91 | 0.91 | 98 | 1005.7 |
| 20260507002003 | 15 | 194 | 4.8 | 14.5 | 0.13 | 0.91 | 0.91 | 98 | 1005.4 |
| 20260507001525 | 15 | 198 | 4.8 | 16.1 | 0.13 | 0.91 | 0.91 | 98 | 1005.0 |
| 20260507001003 | 15 | 202 | 4.8 | 17.7 | 0.15 | 0.91 | 0.91 | 98 | 1005.4 |
| 20260507000504 | 15 | 195 | 4.8 | 17.7 | 0.18 | 0.91 | 0.91 | 98 | 1005.4 |
| 20260507000004 | 15 | 190 | 4.8 | 14.5 | 0.20 | 0.91 | 0.91 | 98 | 1005.4 |
| 20260506235503 | 15 | 192 | 4.8 | 14.5 | 0.23 | 0.91 | 0.91 | 98 | 1005.4 |
| 20260506235003 | 15 | 196 | 4.8 | 17.7 | 0.28 | 0.91 | 0.91 | 98 | 1005.4 |
| 20260506234504 | 15 | 198 | 4.8 | 17.7 | 0.30 | 0.91 | 0.91 | 98 | 1005.0 |
| 20260506234005 | 15 | 201 | 4.8 | 16.1 | 0.33 | 0.91 | 0.91 | 98 | 1005.4 |
| 20260506233503 | 15 | 203 | 4.8 | 16.1 | 0.36 | 0.91 | 0.91 | 98 | 1005.4 |
| 20260506233003 | 15 | 197 | 4.8 | 16.1 | 0.33 | 0.89 | 0.89 | 98 | 1005.4 |
| 20260506232504 | 15 | 187 | 6.4 | 19.3 | 0.30 | 0.84 | 0.84 | 98 | 1005.4 |
| 20260506232003 | 15 | 187 | 6.4 | 19.3 | 0.25 | 0.79 | 0.79 | 98 | 1005.4 |
| 20260506231504 | 15 | 191 | 6.4 | 25.7 | 0.28 | 0.79 | 0.79 | 98 | 1005.4 |
| 20260506231003 | 15 | 189 | 6.4 | 25.7 | 0.28 | 0.76 | 0.76 | 98 | 1005.7 |
| 20260506230504 | 15 | 187 | 6.4 | 25.7 | 0.28 | 0.74 | 0.74 | 97 | 1005.7 |
| 20260506230025 | 15 | 190 | 6.4 | 25.7 | 0.25 | 0.71 | 0.71 | 97 | 1005.7 |
| 20260506225503 | 15 | 191 | 6.4 | 22.5 | 0.23 | 0.69 | 0.69 | 97 | 1005.7 |
| 20260506225003 | 15 | 191 | 4.8 | 20.9 | 0.18 | 0.64 | 0.64 | 97 | 1005.7 |
| 20260506224503 | 15 | 195 | 4.8 | 20.9 | 0.15 | 0.61 | 0.61 | 97 | 1005.7 |
| 20260506224003 | 15 | 189 | 4.8 | 20.9 | 0.13 | 0.58 | 0.58 | 97 | 1005.7 |
| 20260506223503 | 15 | 187 | 4.8 | 12.9 | 0.10 | 0.56 | 0.56 | 97 | 1005.7 |
| 20260506223003 | 15 | 185 | 3.2 | 17.7 | 0.13 | 0.56 | 0.56 | 97 | 1005.7 |
| 20260506222524 | 15 | 190 | 4.8 | 17.7 | 0.10 | 0.53 | 0.53 | 97 | 1005.7 |
| 20260506222004 | 15 | 197 | 6.4 | 19.3 | 0.10 | 0.53 | 0.53 | 97 | 1005.7 |
| 20260506221524 | 15 | 189 | 6.4 | 19.3 | 0.10 | 0.51 | 0.51 | 97 | 1006.0 |
| 20260506221003 | 15 | 183 | 6.4 | 19.3 | 0.08 | 0.48 | 0.48 | 97 | 1006.0 |
| 20260506220524 | 15 | 183 | 4.8 | 16.1 | 0.05 | 0.46 | 0.48 | 97 | 1006.0 |
| 20260506220005 | 15 | 180 | 3.2 | 14.5 | 0.08 | 0.46 | 0.46 | 97 | 1006.0 |
| 20260506215503 | 15 | 175 | 3.2 | 12.9 | 0.10 | 0.46 | 0.46 | 97 | 1006.0 |
| 20260506215003 | 15 | 186 | 3.2 | 12.9 | 0.15 | 0.46 | 0.46 | 97 | 1006.0 |
| 20260506214503 | 15 | 190 | 4.8 | 16.1 | 0.15 | 0.46 | 0.46 | 96 | 1006.0 |
| 20260506214003 | 15 | 186 | 6.4 | 16.1 | 0.18 | 0.46 | 0.46 | 96 | 1006.0 |
| 20260506213503 | 15 | 189 | 6.4 | 17.7 | 0.20 | 0.46 | 0.46 | 96 | 1006.0 |
| 20260506213003 | 15 | 185 | 4.8 | 19.3 | 0.20 | 0.43 | 0.43 | 96 | 1006.0 |
| 20260506212503 | 15 | 188 | 6.4 | 20.9 | 0.23 | 0.43 | 0.43 | 96 | 1006.4 |
| 20260506212003 | 15 | 191 | 6.4 | 20.9 | 0.28 | 0.43 | 0.43 | 96 | 1006.4 |
| 20260506211503 | 15 | 183 | 4.8 | 16.1 | 0.28 | 0.41 | 0.41 | 96 | 1006.4 |
| 20260506211003 | 15 | 180 | 4.8 | 16.1 | 0.28 | 0.41 | 0.41 | 96 | 1006.4 |
| 20260506210524 | 16 | 184 | 4.8 | 14.5 | 0.30 | 0.41 | 0.41 | 96 | 1006.7 |
| 20260506210024 | 16 | 186 | 6.4 | 17.7 | 0.28 | 0.38 | 0.38 | 96 | 1006.7 |
| 20260506205503 | 16 | 192 | 6.4 | 19.3 | 0.28 | 0.36 | 0.36 | 95 | 1006.7 |
| 20260506205024 | 16 | 199 | 4.8 | 19.3 | 0.23 | 0.30 | 0.30 | 95 | 1006.7 |
| 20260506204503 | 16 | 210 | 1.6 | 8.0 | 0.25 | 0.30 | 0.30 | 95 | 1006.7 |
| 20260506204024 | 16 | 198 | 1.6 | 11.3 | 0.23 | 0.28 | 0.28 | 95 | 1006.7 |
| 20260506203504 | 16 | 186 | 3.2 | 11.3 | 0.23 | 0.25 | 0.25 | 94 | 1006.7 |
| 20260506203003 | 16 | 197 | 4.8 | 11.3 | 0.20 | 0.23 | 0.23 | 93 | 1006.4 |
| 20260506202503 | 16 | 190 | 3.2 | 19.3 | 0.18 | 0.20 | 0.20 | 92 | 1006.7 |
| 20260506202003 | 16 | 181 | 3.2 | 19.3 | 0.13 | 0.15 | 0.15 | 91 | 1006.4 |
| 20260506201504 | 16 | 191 | 4.8 | 17.7 | 0.13 | 0.13 | 0.13 | 91 | 1006.4 |
| 20260506201003 | 16 | 191 | 4.8 | 17.7 | 0.13 | 0.13 | 0.13 | 91 | 1006.7 |
| 20260506200503 | 16 | 190 | 4.8 | 16.1 | 0.10 | 0.10 | 0.10 | 90 | 1006.4 |
| 20260506200003 | 17 | 195 | 4.8 | 16.1 | 0.10 | 0.10 | 0.10 | 89 | 1006.4 |
| 20260506195503 | 17 | 195 | 4.8 | 24.1 | 0.08 | 0.08 | 0.08 | 88 | 1006.4 |
| 20260506195003 | 17 | 197 | 6.4 | 24.1 | 0.08 | 0.08 | 0.08 | 86 | 1006.7 |
| 20260506194524 | 17 | 197 | 4.8 | 24.1 | 0.05 | 0.05 | 0.05 | 84 | 1006.7 |
| 20260506194003 | 18 | 191 | 4.8 | 14.5 | 0.05 | 0.05 | 0.05 | 83 | 1006.4 |
| 20260506193524 | 18 | 185 | 4.8 | 20.9 | 0.03 | 0.03 | 0.03 | 82 | 1006.4 |
| 20260506193003 | 18 | 194 | 6.4 | 24.1 | 0.03 | 0.03 | 0.03 | 80 | 1006.7 |
| 20260506192503 | 18 | 204 | 6.4 | 24.1 | 0.03 | 0.03 | 0.03 | 77 | 1006.7 |
| 20260506192024 | 19 | 199 | 4.8 | 11.3 | 0.03 | 0.03 | 0.03 | 75 | 1006.4 |
| 20260506191503 | 19 | 201 | 8.0 | 25.7 | 0.00 | 0.00 | 0.00 | 74 | 1006.7 |
| 20260506191003 | 20 | 202 | 8.0 | 25.7 | 0.00 | 0.00 | 0.00 | 72 | 1006.7 |
| 20260506190524 | 20 | 193 | 8.0 | 25.7 | 0.00 | 0.00 | 0.00 | 70 | 1006.4 |
| 20260506190004 | 20 | 200 | 9.7 | 29.0 | 0.00 | 0.00 | 0.00 | 69 | 1006.4 |
| 20260506185524 | 20 | 210 | 9.7 | 29.0 | 0.00 | 0.00 | 0.00 | 67 | 1006.4 |
| 20260506185003 | 21 | 205 | 9.7 | 38.6 | 0.00 | 0.00 | 0.00 | 65 | 1006.7 |
| 20260506184503 | 21 | 203 | 9.7 | 38.6 | 0.00 | 0.00 | 0.00 | 64 | 1006.4 |
| 20260506184003 | 21 | 202 | 9.7 | 35.4 | 0.00 | 0.00 | 0.00 | 65 | 1006.4 |
| 20260506183503 | 21 | 190 | 8.0 | 24.1 | 0.00 | 0.00 | 0.00 | 63 | 1006.7 |
| 20260506183025 | 21 | 194 | 8.0 | 24.1 | 0.00 | 0.00 | 0.00 | 62 | 1006.4 |
| 20260506182503 | 21 | 196 | 8.0 | 17.7 | 0.00 | 0.00 | 0.00 | 61 | 1006.4 |
| 20260506182003 | 22 | 181 | 8.0 | 33.8 | 0.00 | 0.00 | 0.00 | 60 | 1006.0 |
| 20260506181503 | 22 | 181 | 8.0 | 33.8 | 0.00 | 0.00 | 0.00 | 60 | 1006.4 |
| 20260506181003 | 22 | 188 | 8.0 | 27.4 | 0.00 | 0.00 | 0.00 | 59 | 1006.7 |
| 20260506180504 | 22 | 184 | 8.0 | 27.4 | 0.00 | 0.00 | 0.00 | 59 | 1006.7 |
| 20260506180005 | 22 | 192 | 8.0 | 27.4 | 0.00 | 0.00 | 0.00 | 59 | 1006.7 |
| 20260506175504 | 22 | 198 | 8.0 | 24.1 | 0.00 | 0.00 | 0.00 | 59 | 1006.7 |
| 20260506175004 | 22 | 187 | 8.0 | 27.4 | 0.00 | 0.00 | 0.00 | 59 | 1007.1 |
| 20260506174503 | 22 | 191 | 9.7 | 35.4 | 0.00 | 0.00 | 0.00 | 59 | 1006.4 |
| 20260506174024 | 22 | 195 | 9.7 | 37.0 | 0.00 | 0.00 | 0.00 | 59 | 1006.7 |
| 20260506173503 | 22 | 192 | 11.3 | 37.0 | 0.00 | 0.00 | 0.00 | 59 | 1006.7 |
| 20260506173003 | 22 | 187 | 9.7 | 33.8 | 0.00 | 0.00 | 0.00 | 58 | 1006.7 |
| 20260506172504 | 22 | 182 | 9.7 | 24.1 | 0.00 | 0.00 | 0.00 | 58 | 1006.7 |
| 20260506172003 | 22 | 189 | 9.7 | 30.6 | 0.00 | 0.00 | 0.00 | 58 | 1007.1 |
| 20260506171503 | 23 | 193 | 9.7 | 30.6 | 0.00 | 0.00 | 0.00 | 57 | 1006.7 |
| 20260506171003 | 23 | 184 | 9.7 | 29.0 | 0.00 | 0.00 | 0.00 | 57 | 1006.7 |
| 20260506170524 | 23 | 184 | 9.7 | 37.0 | 0.00 | 0.00 | 0.00 | 56 | 1006.7 |
| 20260506170024 | 22 | 206 | 9.7 | 37.0 | 0.00 | 0.00 | 0.00 | 57 | 1007.1 |
| 20260506165503 | 22 | 204 | 9.7 | 33.8 | 0.00 | 0.00 | 0.00 | 57 | 1007.1 |
| 20260506165005 | 22 | 191 | 9.7 | 27.4 | 0.00 | 0.00 | 0.00 | 57 | 1007.1 |
| 20260506164503 | 22 | 193 | 8.0 | 27.4 | 0.00 | 0.00 | 0.00 | 58 | 1007.4 |
| 20260506164024 | 22 | 187 | 8.0 | 22.5 | 0.00 | 0.00 | 0.00 | 59 | 1007.1 |
| 20260506163525 | 22 | 198 | 8.0 | 24.1 | 0.00 | 0.00 | 0.00 | 59 | 1007.4 |
| 20260506163003 | 22 | 203 | 8.0 | 24.1 | 0.00 | 0.00 | 0.00 | 59 | 1007.4 |
| 20260506162503 | 22 | 190 | 8.0 | 22.5 | 0.00 | 0.00 | 0.00 | 60 | 1007.7 |
| 20260506162003 | 22 | 176 | 8.0 | 20.9 | 0.00 | 0.00 | 0.00 | 60 | 1007.7 |
| 20260506161503 | 22 | 169 | 6.4 | 17.7 | 0.00 | 0.00 | 0.00 | 61 | 1007.7 |
| 20260506161003 | 22 | 184 | 8.0 | 24.1 | 0.00 | 0.00 | 0.00 | 61 | 1007.7 |
| 20260506160503 | 21 | 195 | 8.0 | 24.1 | 0.00 | 0.00 | 0.00 | 62 | 1008.1 |
| 20260506160003 | 21 | 194 | 6.4 | 24.1 | 0.00 | 0.00 | 0.00 | 62 | 1008.1 |
| 20260506155503 | 21 | 194 | 4.8 | 24.1 | 0.00 | 0.00 | 0.00 | 63 | 1008.4 |
| 20260506155003 | 21 | 195 | 4.8 | 14.5 | 0.00 | 0.00 | 0.00 | 64 | 1008.4 |
| 20260506154503 | 21 | 187 | 6.4 | 20.9 | 0.00 | 0.00 | 0.00 | 64 | 1008.8 |
| 20260506154003 | 21 | 185 | 6.4 | 20.9 | 0.00 | 0.00 | 0.00 | 64 | 1008.8 |
| 20260506153524 | 21 | 190 | 6.4 | 24.1 | 0.00 | 0.00 | 0.00 | 64 | 1008.4 |
| 20260506153003 | 21 | 186 | 9.7 | 32.2 | 0.00 | 0.00 | 0.00 | 64 | 1008.8 |
| 20260506152503 | 21 | 190 | 9.7 | 32.2 | 0.00 | 0.00 | 0.00 | 64 | 1008.8 |
| 20260506152003 | 21 | 199 | 6.4 | 20.9 | 0.00 | 0.00 | 0.00 | 64 | 1008.8 |
| 20260506151504 | 21 | 185 | 9.7 | 33.8 | 0.00 | 0.00 | 0.00 | 64 | 1008.8 |
| 20260506151003 | 21 | 186 | 9.7 | 33.8 | 0.00 | 0.00 | 0.00 | 65 | 1008.8 |
| 20260506150503 | 21 | 184 | 8.0 | 30.6 | 0.00 | 0.00 | 0.00 | 65 | 1009.1 |
| 20260506150003 | 21 | 182 | 8.0 | 27.4 | 0.00 | 0.00 | 0.00 | 65 | 1009.1 |
| 20260506145525 | 21 | 189 | 9.7 | 27.4 | 0.00 | 0.00 | 0.00 | 66 | 1009.1 |
| 20260506145004 | 21 | 190 | 8.0 | 20.9 | 0.00 | 0.00 | 0.00 | 66 | 1008.8 |
| 20260506144503 | 21 | 204 | 9.7 | 32.2 | 0.00 | 0.00 | 0.00 | 66 | 1008.8 |
| 20260506144003 | 21 | 206 | 8.0 | 32.2 | 0.00 | 0.00 | 0.00 | 67 | 1008.8 |
| 20260506143503 | 21 | 189 | 8.0 | 22.5 | 0.00 | 0.00 | 0.00 | 65 | 1008.8 |
| 20260506143003 | 21 | 186 | 9.7 | 33.8 | 0.00 | 0.00 | 0.00 | 66 | 1008.8 |
| 20260506142503 | 20 | 194 | 9.7 | 33.8 | 0.00 | 0.00 | 0.00 | 67 | 1008.8 |
| 20260506142003 | 20 | 196 | 9.7 | 25.7 | 0.00 | 0.00 | 0.00 | 68 | 1008.4 |
| 20260506141503 | 20 | 188 | 8.0 | 29.0 | 0.00 | 0.00 | 0.00 | 68 | 1008.8 |
| 20260506141003 | 20 | 194 | 8.0 | 29.0 | 0.00 | 0.00 | 0.00 | 69 | 1008.8 |
| 20260506140504 | 20 | 193 | 8.0 | 24.1 | 0.00 | 0.00 | 0.00 | 70 | 1008.8 |
| 20260506140003 | 20 | 189 | 8.0 | 22.5 | 0.00 | 0.00 | 0.00 | 71 | 1008.8 |
| 20260506135503 | 19 | 188 | 8.0 | 24.1 | 0.00 | 0.00 | 0.00 | 71 | 1008.8 |
| 20260506134503 | 19 | 189 | 6.4 | 24.1 | 0.00 | 0.00 | 0.00 | 72 | 1008.8 |
| 20260506134003 | 19 | 198 | 4.8 | 17.7 | 0.00 | 0.00 | 0.00 | 72 | 1009.1 |
| 20260506133503 | 19 | 197 | 6.4 | 24.1 | 0.00 | 0.00 | 0.00 | 73 | 1009.4 |
| 20260506133024 | 18 | 195 | 6.4 | 24.1 | 0.00 | 0.00 | 0.00 | 73 | 1009.4 |
| 20260506132503 | 18 | 189 | 8.0 | 27.4 | 0.00 | 0.00 | 0.00 | 73 | 1009.4 |
| 20260506132005 | 18 | 188 | 6.4 | 27.4 | 0.00 | 0.00 | 0.00 | 73 | 1009.1 |
| 20260506131503 | 18 | 197 | 6.4 | 17.7 | 0.00 | 0.00 | 0.00 | 74 | 1009.4 |
| 20260506131003 | 18 | 196 | 8.0 | 27.4 | 0.00 | 0.00 | 0.00 | 74 | 1009.1 |
| 20260506130504 | 18 | 195 | 8.0 | 27.4 | 0.00 | 0.00 | 0.00 | 74 | 1009.4 |
| 20260506130003 | 18 | 190 | 8.0 | 25.7 | 0.00 | 0.00 | 0.00 | 74 | 1009.4 |
| 20260506125504 | 18 | 185 | 6.4 | 22.5 | 0.00 | 0.00 | 0.00 | 74 | 1009.4 |
| 20260506125003 | 18 | 193 | 6.4 | 24.1 | 0.00 | 0.00 | 0.00 | 73 | 1009.1 |
| 20260506124503 | 18 | 198 | 8.0 | 24.1 | 0.00 | 0.00 | 0.00 | 74 | 1009.1 |
| 20260506124003 | 18 | 192 | 8.0 | 20.9 | 0.00 | 0.00 | 0.00 | 75 | 1009.4 |
| 20260506123524 | 18 | 188 | 8.0 | 20.9 | 0.00 | 0.00 | 0.00 | 75 | 1009.4 |
| 20260506123003 | 18 | 192 | 8.0 | 25.7 | 0.00 | 0.00 | 0.00 | 76 | 1009.4 |
| 20260506122524 | 18 | 202 | 8.0 | 25.7 | 0.00 | 0.00 | 0.00 | 75 | 1009.4 |
| 20260506122024 | 18 | 206 | 6.4 | 20.9 | 0.00 | 0.00 | 0.00 | 75 | 1009.4 |
| 20260506121524 | 17 | 193 | 6.4 | 25.7 | 0.00 | 0.00 | 0.00 | 76 | 1009.4 |
| 20260506121003 | 17 | 190 | 6.4 | 25.7 | 0.00 | 0.00 | 0.00 | 77 | 1009.4 |
| 20260506120503 | 17 | 190 | 6.4 | 20.9 | 0.00 | 0.00 | 0.00 | 77 | 1009.4 |
| 20260506120003 | 17 | 193 | 6.4 | 20.9 | 0.00 | 0.00 | 0.00 | 77 | 1009.4 |
| 20260506115524 | 17 | 195 | 8.0 | 20.9 | 0.00 | 0.00 | 0.00 | 77 | 1009.4 |
| 20260506115024 | 17 | 187 | 6.4 | 20.9 | 0.00 | 0.00 | 0.00 | 78 | 1009.4 |
| 20260506114503 | 17 | 178 | 8.0 | 24.1 | 0.00 | 0.00 | 0.00 | 78 | 1009.8 |
| 20260506114004 | 17 | 183 | 8.0 | 24.1 | 0.00 | 0.00 | 0.00 | 78 | 1009.8 |
| 20260506113524 | 17 | 196 | 6.4 | 20.9 | 0.00 | 0.00 | 0.00 | 78 | 1009.8 |
| 20260506113025 | 17 | 195 | 8.0 | 27.4 | 0.00 | 0.00 | 0.00 | 78 | 1009.8 |
| 20260506112503 | 17 | 191 | 6.4 | 27.4 | 0.00 | 0.00 | 0.00 | 78 | 1009.8 |
| 20260506112003 | 17 | 184 | 6.4 | 19.3 | 0.00 | 0.00 | 0.00 | 78 | 1009.8 |
| 20260506111524 | 17 | 183 | 6.4 | 17.7 | 0.00 | 0.00 | 0.00 | 78 | 1009.4 |
| 20260506111024 | 16 | 183 | 6.4 | 17.7 | 0.00 | 0.00 | 0.00 | 78 | 1009.4 |
| 20260506110524 | 16 | 189 | 4.8 | 17.7 | 0.00 | 0.00 | 0.00 | 79 | 1009.8 |
| 20260506110024 | 16 | 193 | 6.4 | 24.1 | 0.00 | 0.00 | 0.00 | 79 | 1009.8 |
| 20260506105503 | 16 | 192 | 8.0 | 24.1 | 0.00 | 0.00 | 0.00 | 79 | 1009.8 |
| 20260506105003 | 16 | 187 | 8.0 | 24.1 | 0.00 | 0.00 | 0.00 | 79 | 1009.4 |
| 20260506104503 | 16 | 186 | 6.4 | 16.1 | 0.00 | 0.00 | 0.00 | 79 | 1009.8 |
| 20260506104024 | 16 | 188 | 4.8 | 14.5 | 0.00 | 0.00 | 0.00 | 79 | 1009.4 |
| 20260506103524 | 16 | 189 | 4.8 | 14.5 | 0.00 | 0.00 | 0.00 | 79 | 1009.8 |
| 20260506103003 | 16 | 190 | 6.4 | 20.9 | 0.00 | 0.00 | 0.00 | 78 | 1009.8 |
| 20260506102525 | 16 | 191 | 6.4 | 20.9 | 0.00 | 0.00 | 0.00 | 78 | 1009.8 |
| 20260506102003 | 16 | 189 | 6.4 | 17.7 | 0.00 | 0.00 | 0.00 | 78 | 1009.8 |
| 20260506101524 | 16 | 187 | 6.4 | 17.7 | 0.00 | 0.00 | 0.00 | 78 | 1009.8 |
| 20260506101003 | 16 | 192 | 4.8 | 22.5 | 0.00 | 0.00 | 0.00 | 78 | 1009.8 |
| 20260506100524 | 16 | 189 | 6.4 | 22.5 | 0.00 | 0.00 | 0.00 | 78 | 1009.4 |
| 20260506100024 | 16 | 191 | 6.4 | 20.9 | 0.00 | 0.00 | 0.00 | 78 | 1009.4 |
| 20260506095503 | 16 | 199 | 6.4 | 20.9 | 0.00 | 0.00 | 0.00 | 77 | 1009.4 |
| 20260506095003 | 16 | 197 | 6.4 | 25.7 | 0.00 | 0.00 | 0.00 | 78 | 1009.4 |
| 20260506094504 | 16 | 188 | 6.4 | 25.7 | 0.00 | 0.00 | 0.00 | 78 | 1009.4 |
| 20260506094003 | 16 | 186 | 6.4 | 22.5 | 0.00 | 0.00 | 0.00 | 77 | 1009.8 |
| 20260506093503 | 16 | 193 | 6.4 | 22.5 | 0.00 | 0.00 | 0.00 | 77 | 1009.4 |
| 20260506093003 | 16 | 197 | 6.4 | 22.5 | 0.00 | 0.00 | 0.00 | 77 | 1009.4 |
| 20260506092503 | 16 | 198 | 6.4 | 24.1 | 0.00 | 0.00 | 0.00 | 77 | 1009.4 |
| 20260506092003 | 16 | 199 | 6.4 | 24.1 | 0.00 | 0.00 | 0.00 | 77 | 1009.4 |
| 20260506091524 | 16 | 201 | 6.4 | 24.1 | 0.00 | 0.00 | 0.00 | 77 | 1009.4 |
| 20260506091003 | 16 | 197 | 6.4 | 19.3 | 0.00 | 0.00 | 0.00 | 77 | 1009.8 |
| 20260506090503 | 16 | 192 | 6.4 | 25.7 | 0.00 | 0.00 | 0.00 | 76 | 1009.8 |
| 20260506090024 | 16 | 191 | 6.4 | 25.7 | 0.00 | 0.00 | 0.00 | 76 | 1009.4 |